Location: Landeleau
(48.2273°N, 3.7285°W)
Time: 12:53:27
(UTC+00:00)

SL-08 RB Rocket - Pass Details

Date: 30 March 2020
Orbit: 646 x 685 km, 97.8° (Epoch: 27 May)

Event Time Altitude Azimuth Distance (km) Brightness Sun altitude
Exits shadow 20:12:31 - 171° (S) 2,316 6.2 -15.1°
Reaches altitude 10° 20:13:09 10° 172° (S) 2,063 5.9 -15.2°
Maximum altitude 20:17:38 74° 257° (WSW) 694 3.9 -15.9°
Drops below altitude 10° 20:22:14 10° 343° (NNW) 2,103 6.9 -16.6°
Sets 20:24:30 0° 346° (NNW) 3,027 7.7 -16.9°
